EN

Hourly Weather Cubara

Today, 23 November, Monday

Time Temperature Precipitation Wind Pressure Humidity
00:00 +24°C° 0 mm 1 mps 729 mmHg 89%
01:00 +23°C° 0 mm 1 mps 729 mmHg 87%
02:00 +23°C° 0.1 mm 1 mps 729 mmHg 86%
03:00 +23°C° 0.1 mm 1 mps 729 mmHg 85%
04:00 +23°C° 0.1 mm 1 mps 729 mmHg 85%
05:00 +24°C° 0.1 mm 1 mps 729 mmHg 82%
06:00 +25°C° 0.1 mm 1 mps 730 mmHg 79%
07:00 +24°C° 0.1 mm 0 mps 730 mmHg 76%
08:00 +28°C° 0 mm 1 mps 730 mmHg 71%
09:00 +30°C° 0 mm 1 mps 730 mmHg 65%
10:00 +32°C° 0 mm 2 mps 730 mmHg 60%
11:00 +32°C° 0.1 mm 1 mps 730 mmHg 61%
12:00 +32°C° 0.1 mm 1 mps 729 mmHg 62%
13:00 +32°C° 0.1 mm 1 mps 728 mmHg 63%
14:00 +32°C° 0.2 mm 1 mps 727 mmHg 67%
15:00 +31°C° 0.2 mm 1 mps 727 mmHg 71%
16:00 +28°C° 0.2 mm 0 mps 726 mmHg 74%
17:00 +27°C° 0.1 mm 0 mps 727 mmHg 80%
18:00 +26°C° 0.1 mm 0 mps 728 mmHg 86%
19:00 +24°C° 0.1 mm 0 mps 728 mmHg 91%
20:00 +24°C° 0.4 mm 0 mps 729 mmHg 92%
21:00 +25°C° 0.4 mm 1 mps 729 mmHg 94%
22:00 +25°C° 0.4 mm 1 mps 729 mmHg 95%
23:00 +25°C° 0.1 mm 1 mps 729 mmHg 94%

Tomorrow, 24 November, Tuesday

Time Temperature Precipitation Wind Pressure Humidity
00:00 +24°C° 0.1 mm 1 mps 729 mmHg 93%
01:00 +24°C° 0.1 mm 1 mps 728 mmHg 92%
02:00 +24°C° 0.1 mm 1 mps 728 mmHg 91%
03:00 +24°C° 0.1 mm 1 mps 728 mmHg 90%
04:00 +24°C° 0.1 mm 1 mps 728 mmHg 89%
05:00 +25°C° 0.2 mm 1 mps 729 mmHg 87%
06:00 +23°C° 0.2 mm 0 mps 729 mmHg 85%
07:00 +24°C° 0.2 mm 0 mps 730 mmHg 83%
08:00 +27°C° 0.4 mm 1 mps 730 mmHg 80%
09:00 +29°C° 0.4 mm 1 mps 730 mmHg 77%
10:00 +30°C° 0.4 mm 1 mps 730 mmHg 74%
11:00 +30°C° 0.9 mm 1 mps 729 mmHg 77%
12:00 +30°C° 0.9 mm 1 mps 729 mmHg 81%
13:00 +30°C° 0.9 mm 1 mps 728 mmHg 84%
14:00 +30°C° 0.6 mm 1 mps 727 mmHg 84%
15:00 +30°C° 0.6 mm 1 mps 727 mmHg 83%
16:00 +27°C° 0.6 mm 0 mps 727 mmHg 83%
17:00 +26°C° 0.2 mm 0 mps 727 mmHg 87%
18:00 +27°C° 0.2 mm 1 mps 728 mmHg 90%
19:00 +25°C° 0.2 mm 1 mps 729 mmHg 93%
20:00 +25°C° 0 mm 1 mps 729 mmHg 93%
21:00 +25°C° 0 mm 1 mps 729 mmHg 92%
22:00 +24°C° 0 mm 1 mps 730 mmHg 91%
23:00 +24°C° 0.2 mm 1 mps 730 mmHg 91%

Day after tomorrow, 25 November, Wednesday

Time Temperature Precipitation Wind Pressure Humidity
00:00 +24°C° 0.2 mm 1 mps 729 mmHg 90%
01:00 +24°C° 0.2 mm 1 mps 729 mmHg 90%
02:00 +23°C° 0.3 mm 1 mps 729 mmHg 89%
03:00 +23°C° 0.3 mm 1 mps 729 mmHg 89%
04:00 +23°C° 0.3 mm 1 mps 729 mmHg 89%
05:00 +24°C° 0 mm 1 mps 729 mmHg 87%
06:00 +25°C° 0 mm 1 mps 729 mmHg 86%
07:00 +25°C° 0 mm 1 mps 730 mmHg 84%
08:00 +27°C° 0 mm 1 mps 730 mmHg 77%
09:00 +29°C° 0 mm 1 mps 730 mmHg 71%
10:00 +31°C° 0 mm 1 mps 730 mmHg 64%
11:00 +31°C° 0.1 mm 1 mps 730 mmHg 63%
12:00 +32°C° 0.1 mm 1 mps 729 mmHg 63%
13:00 +32°C° 0.1 mm 1 mps 728 mmHg 62%
14:00 +31°C° 0.1 mm 1 mps 727 mmHg 67%
15:00 +31°C° 0.1 mm 1 mps 727 mmHg 72%
16:00 +30°C° 0.1 mm 1 mps 727 mmHg 76%
17:00 +29°C° 0.2 mm 1 mps 727 mmHg 82%
18:00 +25°C° 0.2 mm 0 mps 728 mmHg 88%
19:00 +24°C° 0.2 mm 0 mps 728 mmHg 94%
20:00 +23°C° 0.2 mm 0 mps 729 mmHg 94%
21:00 +25°C° 0.2 mm 1 mps 729 mmHg 93%
22:00 +25°C° 0.2 mm 1 mps 730 mmHg 93%
23:00 +24°C° 0.6 mm 1 mps 729 mmHg 93%

26 November, Thursday

Time Temperature Precipitation Wind Pressure Humidity
00:00 +24°C° 0.6 mm 1 mps 729 mmHg 93%
01:00 +24°C° 0.6 mm 1 mps 728 mmHg 94%
02:00 +24°C° 0 mm 1 mps 728 mmHg 93%
03:00 +24°C° 0 mm 1 mps 728 mmHg 92%
04:00 +24°C° 0 mm 1 mps 728 mmHg 92%
05:00 +25°C° 0 mm 1 mps 729 mmHg 90%
06:00 +25°C° 0 mm 1 mps 729 mmHg 87%
07:00 +26°C° 0 mm 1 mps 730 mmHg 85%
08:00 +27°C° 0 mm 1 mps 730 mmHg 78%
09:00 +29°C° 0 mm 1 mps 730 mmHg 71%
10:00 +31°C° 0 mm 1 mps 730 mmHg 65%
11:00 +31°C° 0.2 mm 1 mps 729 mmHg 64%
12:00 +32°C° 0.2 mm 1 mps 729 mmHg 64%
13:00 +32°C° 0.2 mm 2 mps 728 mmHg 64%
14:00 +31°C° 0.7 mm 1 mps 727 mmHg 71%
15:00 +30°C° 0.7 mm 1 mps 727 mmHg 79%
16:00 +27°C° 0.7 mm 0 mps 726 mmHg 87%
17:00 +26°C° 0.3 mm 0 mps 727 mmHg 90%
18:00 +26°C° 0.3 mm 1 mps 727 mmHg 92%
19:00 +25°C° 0.3 mm 1 mps 728 mmHg 95%
20:00 +25°C° 0.4 mm 1 mps 728 mmHg 94%
21:00 +25°C° 0.4 mm 1 mps 728 mmHg 94%
22:00 +24°C° 0.4 mm 1 mps 729 mmHg 93%
23:00 +24°C° 0 mm 1 mps 728 mmHg 93%

27 November, Friday

Time Temperature Precipitation Wind Pressure Humidity
00:00 +24°C° 0 mm 1 mps 728 mmHg 93%
01:00 +24°C° 0 mm 1 mps 728 mmHg 92%
02:00 +23°C° 0 mm 1 mps 728 mmHg 91%
03:00 +23°C° 0 mm 1 mps 728 mmHg 90%
04:00 +23°C° 0 mm 1 mps 728 mmHg 89%
05:00 +24°C° 0.1 mm 1 mps 728 mmHg 87%
06:00 +23°C° 0.1 mm 0 mps 729 mmHg 85%
07:00 +23°C° 0.1 mm 0 mps 729 mmHg 83%
08:00 +24°C° 0.3 mm 0 mps 729 mmHg 85%
09:00 +24°C° 0.3 mm 0 mps 730 mmHg 87%
10:00 +25°C° 0.3 mm 0 mps 730 mmHg 89%
11:00 +27°C° 0.4 mm 1 mps 729 mmHg 89%
12:00 +27°C° 0.4 mm 1 mps 728 mmHg 89%
13:00 +27°C° 0.4 mm 1 mps 727 mmHg 89%
14:00 +28°C° 0.2 mm 1 mps 727 mmHg 86%
15:00 +28°C° 0.2 mm 1 mps 727 mmHg 82%
16:00 +27°C° 0.2 mm 0 mps 726 mmHg 79%
17:00 +25°C° 0.1 mm 0 mps 727 mmHg 83%
18:00 +24°C° 0.1 mm 0 mps 727 mmHg 87%
19:00 +23°C° 0.1 mm 0 mps 728 mmHg 91%
20:00 +25°C° 0 mm 1 mps 728 mmHg 90%
21:00 +25°C° 0 mm 1 mps 728 mmHg 89%
22:00 +24°C° 0 mm 1 mps 729 mmHg 88%
23:00 +24°C° 0 mm 1 mps 729 mmHg 87%

28 November, Saturday

Time Temperature Precipitation Wind Pressure Humidity
00:00 +24°C° 0 mm 1 mps 728 mmHg 86%
01:00 +24°C° 0 mm 1 mps 728 mmHg 85%
02:00 +24°C° 0 mm 1 mps 728 mmHg 85%
03:00 +24°C° 0 mm 1 mps 728 mmHg 85%
04:00 +23°C° 0 mm 1 mps 727 mmHg 85%
05:00 +22°C° 0 mm 0 mps 728 mmHg 83%
06:00 +23°C° 0 mm 0 mps 729 mmHg 80%
07:00 +24°C° 0 mm 0 mps 729 mmHg 78%
08:00 +27°C° 0.1 mm 1 mps 729 mmHg 73%
09:00 +29°C° 0.1 mm 1 mps 730 mmHg 68%
10:00 +31°C° 0.1 mm 1 mps 730 mmHg 63%
11:00 +31°C° 0.3 mm 1 mps 729 mmHg 65%
12:00 +31°C° 0.3 mm 1 mps 728 mmHg 67%
13:00 +31°C° 0.3 mm 1 mps 728 mmHg 68%
14:00 +31°C° 0.7 mm 1 mps 727 mmHg 75%
15:00 +30°C° 0.7 mm 1 mps 727 mmHg 81%
16:00 +27°C° 0.7 mm 0 mps 726 mmHg 88%
17:00 +26°C° 0.2 mm 0 mps 727 mmHg 90%
18:00 +25°C° 0.2 mm 0 mps 728 mmHg 93%
19:00 +23°C° 0.2 mm 0 mps 728 mmHg 95%
20:00 +25°C° 0.2 mm 1 mps 728 mmHg 95%
21:00 +24°C° 0.2 mm 1 mps 729 mmHg 95%
22:00 +24°C° 0.2 mm 1 mps 729 mmHg 95%
23:00 +24°C° 0.2 mm 1 mps 729 mmHg 94%
Show more

We Need Your Consent

Meteoprog and our Service Providers may store and access personal data such as cookies, device identifiers or other similar technologies on your device and process such data to personalise content and ads, as well as provide social media features and to analyse the traffic.

  • Store and/or access information on your device

    Cookies, device identifiers or other information can be stored or accessed on your device for the purposes indicated above.

  • Personalised ads and content, ad and content measurement, audience insights, and products development

    Ads and content can be personalised based on a profile. More data can be added to better personalise ads and content. Ad and content performance can be measured. Insights about the audience who saw the ads and content can be derived. Such data can be used to develop or improve user’s experience, systems and software.

By clicking ‘I Agree’ you will allow the use of indicated cookies, device identifiers, web beacons or other similar technologies. Your settings can be changed in the browser on your device.

For certain purposes, legitimate interests may be relied on, rather than consent. You can read more about this in our Privacy and Cookie Policy.